Weather History for KFTG - December, 2012

Change the Weather History Date:

Thursday, December 6, 2012

  Actual Average (KDEN) Record (KDEN)
Temperature  
Mean Temperature 42 °F 31 °F  
Max Temperature 50 °F 44 °F 73 °F (1939)
Min Temperature 33 °F 18 °F -17 °F (1972)
Degree Days  
Heating Degree Days 24 34  
Month to date heating degree days 202  
Since 1 July heating degree days 1584  
Cooling Degree Days 0 0  
Month to date cooling degree days 0  
Year to date cooling degree days 769  
Moisture  
Dew Point 30 °F    
Average Humidity 63    
Maximum Humidity 87    
Minimum Humidity 43    
Precipitation  
Precipitation 0.00 in 0.01 in 1.66 in (1883)
Month to date precipitation 0.07  
Year to date precipitation 14.02  
Snow  
Snow 0.00 in - - ()
Month to date snowfall  
Since 1 July snowfall  
Snow Depth -    
Sea Level Pressure  
Sea Level Pressure 29.93 in    
Wind  
Wind Speed 8 mph (SSE)    
Max Wind Speed 14 mph    
Max Gust Speed -    
Visibility 10 miles    
Events      
T = Trace of Precipitation, MM = Missing Value Source: NWS Daily Summary

Daily Weather History Graph

Daily Weather History Graph

Search for Another Location

Airport or City:

Trip Planner

Search our weather history database for the weather conditions in past years. The results will help you decide how hot, cold, wet, or windy it might be!

Date:

Astronomy

Dec. 06, 2012 Rise Set
Actual Time 7:05 AM MST 4:33 PM MST
Civil Twilight 6:35 AM MST 5:03 PM MST
Nautical Twilight 6:01 AM MST 5:37 PM MST
Astronomical Twilight 5:28 AM MST 6:09 PM MST
Moon No Moon Rise 12:00 PM MST (12/6)
Length of Visible Light 10h 28m
Length of Day
9h 27m
Waning Gibbous, 48% of the Moon is Illuminated
Dec 6
Waning Gibbous
Dec 13
New
Dec 19
First Quarter
Dec 28
Full
Jan 4
Last Quarter

Hourly Weather History & Observations

Time (MST) Temp. Windchill Dew Point Humidity Pressure Visibility Wind Dir Wind Speed Gust Speed Precip Events Conditions
12:01 AM 48.2 °F - 28.4 °F 46% 29.90 in 10.0 mi WSW 8.1 mph - N/A   Clear
12:21 AM 48.2 °F - 28.4 °F 46% 29.90 in 10.0 mi SW 8.1 mph - N/A   Clear
12:41 AM 48.2 °F - 28.4 °F 46% 29.90 in 10.0 mi West 9.2 mph - N/A   Clear
1:01 AM 46.4 °F 41.9 °F 28.4 °F 50% 29.92 in 10.0 mi WSW 9.2 mph - N/A   Clear
1:21 AM 50.0 °F - 28.4 °F 43% 29.91 in 10.0 mi WSW 9.2 mph - N/A   Clear
1:41 AM 48.2 °F - 28.4 °F 46% 29.92 in 10.0 mi SW 5.8 mph - N/A   Clear
2:01 AM 46.4 °F 41.9 °F 28.4 °F 50% 29.93 in 10.0 mi West 9.2 mph - N/A   Clear
2:21 AM 44.6 °F 43.1 °F 28.4 °F 53% 29.93 in 10.0 mi North 3.5 mph - N/A   Clear
2:41 AM 44.6 °F 38.8 °F 28.4 °F 53% 29.93 in 10.0 mi NNE 11.5 mph - N/A   Clear
3:01 AM 44.6 °F 41.4 °F 30.2 °F 57% 29.94 in 10.0 mi North 5.8 mph - N/A   Clear
3:21 AM 44.6 °F 42.2 °F 30.2 °F 57% 29.93 in 10.0 mi ENE 4.6 mph - N/A   Clear
3:41 AM 44.6 °F 40.2 °F 30.2 °F 57% 29.93 in 10.0 mi East 8.1 mph - N/A   Clear
4:01 AM 44.6 °F 40.7 °F 30.2 °F 57% 29.94 in 10.0 mi ESE 6.9 mph - N/A   Clear
4:20 AM 44.6 °F 39.7 °F 30.2 °F 57% 29.95 in 10.0 mi SE 9.2 mph - N/A   Clear
4:41 AM 42.8 °F 38.6 °F 30.2 °F 61% 29.95 in 10.0 mi SE 6.9 mph - N/A   Clear
5:20 AM 44.6 °F 42.2 °F 30.2 °F 57% 29.97 in 10.0 mi NE 4.6 mph - N/A   Scattered Clouds
5:41 AM 44.6 °F 41.4 °F 30.2 °F 57% 29.99 in 10.0 mi East 5.8 mph - N/A   Overcast
6:01 AM 44.6 °F 39.2 °F 30.2 °F 57% 29.99 in 10.0 mi East 10.4 mph - N/A   Overcast
6:21 AM 44.6 °F 39.2 °F 32.0 °F 61% 29.99 in 10.0 mi East 10.4 mph - N/A   Overcast
6:41 AM 44.6 °F 39.2 °F 32.0 °F 61% 30.00 in 10.0 mi East 10.4 mph - N/A   Overcast
6:56 AM 44.6 °F 39.7 °F 32.0 °F 61% 30.01 in 10.0 mi East 9.2 mph - N/A   Overcast
7:45 AM 44.6 °F 39.7 °F 32.0 °F 61% 30.02 in 40.0 mi NE 9.2 mph - N/A   Mostly Cloudy
8:55 AM 44.6 °F 38.1 °F 35.6 °F 71% 30.04 in 40.0 mi ENE 13.8 mph - N/A   Mostly Cloudy
9:53 AM 44.6 °F 39.7 °F 35.6 °F 71% 30.06 in 40.0 mi East 9.2 mph - N/A   Mostly Cloudy
1:47 PM 48.2 °F - 32.0 °F 54% 29.95 in 40.0 mi ESE 9.2 mph - N/A   Scattered Clouds
2:47 PM 48.2 °F - 32.0 °F 54% 29.92 in 40.0 mi ESE 9.2 mph - N/A   Scattered Clouds
3:47 PM 48.2 °F - 32.0 °F 54% 29.90 in 40.0 mi SE 8.1 mph - N/A   Partly Cloudy
4:47 PM 41.0 °F 33.9 °F 30.2 °F 65% 29.90 in 40.0 mi ESE 12.7 mph - N/A   Partly Cloudy
5:47 PM 37.4 °F 30.8 °F 28.4 °F 70% 29.89 in 10.0 mi SE 9.2 mph - N/A   Partly Cloudy
6:50 PM 39.2 °F 31.6 °F 28.4 °F 65% 29.89 in 10.0 mi SSE 12.7 mph - N/A   Clear
7:47 PM 37.4 °F 29.8 °F 28.4 °F 70% 29.88 in 10.0 mi SSE 11.5 mph - N/A   Clear
9:01 PM 35.6 °F 29.2 °F 30.2 °F 81% 29.88 in 10.0 mi SSW 8.1 mph - N/A   Clear
9:21 PM 37.4 °F 31.4 °F 32.0 °F 81% 29.87 in 10.0 mi SSW 8.1 mph - N/A   Clear
9:40 PM 33.8 °F 29.6 °F 30.2 °F 87% 29.89 in 10.0 mi SW 4.6 mph - N/A   Clear
10:01 PM 35.6 °F 29.9 °F 30.2 °F 81% 29.89 in 10.0 mi SW 6.9 mph - N/A   Clear
10:21 PM 35.6 °F - 30.2 °F 81% 29.89 in 10.0 mi Calm Calm - N/A   Clear
10:41 PM 33.8 °F 27.7 °F 30.2 °F 87% 29.88 in 10.0 mi SW 6.9 mph - N/A   Clear
11:01 PM 35.6 °F 29.2 °F 30.2 °F 81% 29.88 in 10.0 mi SW 8.1 mph - N/A   Clear
11:21 PM 35.6 °F 29.9 °F 30.2 °F 81% 29.87 in 10.0 mi SW 6.9 mph - N/A   Clear
11:41 PM 35.6 °F 28.6 °F 30.2 °F 81% 29.87 in 10.0 mi SW 9.2 mph - N/A   Clear